Back to catalog

CENTISPACE-2 S3

AliveNavigationLEO
NORAD 68352·PAYLOAD·🇨🇳 China

Launched Mar 22, 2026 from Yellow Sea Launch Area

Loading…

Next Passes (next 24 hours)

TLE

FreshSource: Space-Track

Epoch: Sep 14, 2026, 10:36 UTC

1 68352U 26060C   26257.44202523  .00000076  00000-0  97235-4 0  9995
2 68352  54.9818  48.7544 0008914 269.4849  90.5107 14.26163120 25675

Track CENTISPACE-2 S3 in real time with AllMySat

Download on the App Store